User: anonymous
Location: Standeford and Andreas Observatories
(44.1397°N, 93.9969°W)
Time: 02:40:47
(UTC-05:00)
Language:

Cosmos 1500 Rocket - Orbit

View from above orbital plane
View from above orbital plane
View from above satellite
View from above satellite

Ground track
Ground track

The orbit data is extracted from the following two-line orbital elements,

1 14373U 83099B   14111.97100589  .00000764  00000-0  90637-4 0  6346
2 14373 082.5420 240.9267 0021701 070.5325 061.6124 14.83050284650055
Epoch (UTC): 21 April 2014 23:18:14
Eccentricity: 0.0021701
inclination: 82.5420°
perigee height: 604 km
apogee height: 635 km
right ascension of ascending node: 240.9267°
argument of perigee: 70.5325°
revolutions per day: 14.83050284
mean anomaly at epoch: 61.6124°
orbit number at epoch: 65005

The dashed part of the orbit path shows where the satellite is in the earth's shadow,  

DLR